Skip Page Navigation
NASA JPL Caltech
NASA Logo - Jet Propulsion Laboratory + View the NASA Portal
+ Center for Near-Earth Object Studies
JPL Home Earth Solar System Stars & Galaxies Technology
JPL Solar System Dynamics
BODIES ORBITS EPHEMERIDES TOOLS PHYSICAL DATA DISCOVERY FAQ SITE MAP
JPL Small-Body Database Browser
Search: [ help ]  
357932 (2005 WX210)
Classification: Main-belt Asteroid          SPK-ID: 2357932
Ephemeris | Orbit Diagram | Orbital Elements | Mission Design | Physical Parameters | Discovery Circumstances ]

[ show orbit diagram ]
Orbital Elements at Epoch 2459000.5 (2020-May-31.0) TDB
Reference: JPL 8 (heliocentric ecliptic J2000)
 Element Value Uncertainty (1-sigma)   Units 
e .1479373489791301 5.2252e-08  
a 2.250886040931498 1.4465e-08 au
q 1.917895927181962 1.1314e-07 au
i 1.114681222971209 6.3271e-06 deg
node 184.6688549064243 0.0002765 deg
peri 302.9301020377447 0.00027868 deg
M 64.73866840827328 3.1226e-05 deg
tp 2458778.685490996614
(2019-Oct-22.18549100)
0.000106 TDB
period 1233.470276800043
3.38
1.189e-05
3.255e-08
d
yr
n .2918594852029494 2.8135e-09 deg/d
Q 2.583876154681034 1.6605e-08 au
  Orbit Determination Parameters
   # obs. used (total)      122  
   data-arc span      6227 days (17.05 yr)  
   first obs. used      2003-04-05  
   last obs. used      2020-04-22  
   planetary ephem.      DE431  
   SB-pert. ephem.      SB431-N16  
   condition code      0  
   norm. resid. RMS      .60853  
   source      ORB  
   producer      Otto Matic  
   solution date      2020-May-21 23:19:52  

Additional Information
 Earth MOID = .933262 au 
 Jupiter MOID = 2.46602 au 
 T_jup = 3.612 
[ show covariance matrix ]

Ephemeris | Orbit Diagram | Orbital Elements | Mission Design | Physical Parameters | Discovery Circumstances ]

Physical Parameter Table
Parameter Symbol Value Units Sigma Reference Notes
absolute magnitude H 18.5   n/a MPO455584  

357932 (2005 WX210)          Discovered 2005-Nov-26 by Spacewatch at Kitt Peak
Reference: 20130327/Numbers.arcLast Updated: 2013-03-29

Alternate Designations
 2005 WX210 = 2013 CW7 
Ephemeris | Orbit Diagram | Orbital Elements | Mission Design | Physical Parameters | Discovery Circumstances ]
ABOUT SSD CREDITS/AWARDS PRIVACY/COPYRIGHT GLOSSARY LINKS
FirstGov 2020-Aug-08 04:11 UT
(server date/time)  
NASA Home Page
Site Manager:   Ryan S. Park
Webmaster  Alan B. Chamberlin